Regional Weather Roundup
Issued by NWS

Home | Current Version | Previous Version | Graphics & Text | Print | Product List | Glossary On
Versions: 1 2 3 4 5 6 7 8 9 10 11 12 13 14 15 16 17 18 19 20 21 22 23 24 25 26 27 28 29 30 31 32 33 34 35 36 37 38 39 40 41 42 43 44 45 46 47 48 49 50
000
ASUS43 KOAX 051010
RWRNE

WEATHER ROUNDUP FOR NEBRASKA
NATIONAL WEATHER SERVICE OMAHA NE
500 AM CDT TUE MAY 05 2015

NOTES: SATELLITE DATA IS BEING USED TO AUGMENT CLOUD COVER ABOVE
       12000 FEET.
       "FAIR" INDICATES FEW OR NO CLOUDS BELOW 12,000 FEET WITH NO
       SIGNIFICANT WEATHER AND/OR OBSTRUCTIONS TO VISIBILITY.

  * THESE STATIONS DO NOT REPORT WEATHER SUCH AS RAIN...SNOW OR FOG.

NEZ001>004-019>022-054>056-051100-
NEBRASKA PANHANDLE

CITY           SKY/WX    TMP DP  RH WIND       PRES   REMARKS
SCOTTSBLUFF    CLOUDY    48  44  86 SE9       30.03F
ALLIANCE       CLOUDY    48  44  86 SE5       30.03F
CHADRON        MOCLDY    44  39  82 CALM      30.03F
KIMBALL        FOG       44  44  99 SE5       30.02F VSB 3/4
SIDNEY         CLOUDY    45  44  97 S7        30.06S FOG
$$

NEZ057>060-069>072-079>082-051100-
SOUTHWEST NEBRASKA

CITY           SKY/WX    TMP DP  RH WIND       PRES   REMARKS
NORTH PLATTE   CLOUDY    51  50  96 E6        30.04F FOG
IMPERIAL       FOG       50  49  96 CALM      30.04F VSB 1/2
LEXINGTON      DRIZZLE   55  54  97 CALM      30.04F
MCCOOK         FOG       53  52  96 NE6       30.03F VSB 3/4
OGALLALA       CLOUDY    49  49  99 CALM      30.05F FOG
$$

NEZ005>010-023>029-035>040-094-051100-
NORTH CENTRAL NEBRASKA

CITY           SKY/WX    TMP DP  RH WIND       PRES   REMARKS
VALENTINE      CLOUDY    50  40  68 E5        30.07F
AINSWORTH      CLOUDY    54  47  78 CALM      30.07S
BROKEN BOW     FOG       53  52  96 E3        30.05S VSB 1/4
O`NEILL        CLOUDY    53  50  89 NE3       30.08S
ORD            FOG       54  53  97 E3        30.05R VSB 1/2
THEDFORD       CLOUDY    53  51  92 CALM      30.07S FOG
$$

NEZ041-046>049-061>064-073>077-083>087-051100-
SOUTH CENTRAL NEBRASKA

CITY           SKY/WX    TMP DP  RH WIND       PRES   REMARKS
GRAND ISLAND   FOG       55  55 100 CALM      30.04F VSB 1/4
AURORA         FOG       56  56 100 NE5       30.04S VSB 1/4
HASTINGS       FOG       57  56  96 CALM      30.03F VSB 1/4
HEBRON         CLOUDY    60  57  88 SW6       30.03S
HOLDREGE       FOG       55  54  97 CALM      30.02F VSB 1/4
KEARNEY *      CLOUDY    54  52  94 NE5       30.03F VSB 1/2
YORK           FOG       57  57 100 N6        30.04S VSB<1/4
$$

NEZ011>018-030>034-042>045-051100-
NORTHEAST NEBRASKA

CITY           SKY/WX    TMP DP  RH WIND       PRES   REMARKS
NORFOLK        LGT RAIN  55  54  96 E5        30.05F FOG
ALBION         CLOUDY    54  52  94 E5        30.07R FOG
BLAIR          CLOUDY    56  55  95 N8        30.04S FOG
COLUMBUS *     CLOUDY    55  50  82 NE5       30.07S VSB 1
FREMONT        CLOUDY    57  56  96 NE3       30.04F FOG
TEKAMAH        CLOUDY    57  56  96 N6        30.05S FOG
WAYNE          CLOUDY    55  53  92 NE7       30.08S
$$

NEZ050>053-065>068-078-088>093-051100-
SOUTHEAST NEBRASKA

CITY           SKY/WX    TMP DP  RH WIND       PRES   REMARKS
LINCOLN        CLOUDY    59  58  96 NE3       30.03S FOG
OMAHA EPPLEY   CLOUDY    58  57  97 N3        30.04R FOG
BEATRICE       CLOUDY    60  58  96 S5        30.03S
FALLS CITY     MOCLDY    60  59  96 S6        30.05R
NEBRASKA CITY  CLOUDY    59  59 100 S7        30.05R
PLATTSMOUTH    CLOUDY    59  57  92 CALM      30.05R
$$

NEZ044-045-051>053-067-051100-
OMAHA AREA

CITY           SKY/WX    TMP DP  RH WIND       PRES   REMARKS
OMAHA EPPLEY   CLOUDY    58  57  97 N3        30.04R FOG
BLAIR          CLOUDY    56  55  95 N8        30.04S FOG
FREMONT        CLOUDY    57  56  96 NE3       30.04F FOG
MILLARD        CLOUDY    60  59  97 CALM      30.03S FOG
OFFUTT AFB     CLOUDY    60  59  95 E3        30.04R
PLATTSMOUTH    CLOUDY    59  57  92 CALM      30.05R
$$



USA.gov is the U.S. government's official web portal to all federal, state and local government web resources and services.